[[{"header":{"parameterUnit":"m.s-1","parameterCategory":1,"la1":30.2991,"la2":30.254,"lo1":-89.0895,"lo2":-89.0444,"dy":0.0017,"dx":0.0017,"nx":28,"ny":28,"refTime":"2024-10-12T21:00:00:Z","depth":0,"parameterNumber":2,"parameterNumberName":"U-component_of_WINDS"},"data":[0,0,0,0,0,0,0,0,0,0,0,0,0,0,0,0,0,0,0,0,0,0,0,0,0,0,0,0,0,0,0,0,0,0,0,0,0,0,0,0,0,0,0,0,0,0,0,0,0,0,0,0,0,0,0,0,0,0,0.233,0.2331,0,0.2349,0.2349,0.2349,0.2363,0.2363,0.2363,0.2363,0.238,0.2381,0.2381,0,0,0,0,0,0,0,0,0,0,0,0,0,0.2303,0.2304,0.233,0.2331,0.2331,0.2349,0.2349,0.2349,0.2363,0.2363,0.2363,0.2363,0.238,0.2381,0.2381,0,0,0,0,0,0,0,0,0,0,0,0,0,0.2318,0.2304,0.233,0.234,0.2341,0.2349,0.2349,0.2349,0.2363,0.2363,0.2363,0.2363,0.238,0.2381,0.2381,0.2381,0,0,0.2383,0.2383,0,0,0,0,0,0,0,0,0.2317,0.2319,0.2338,0.2339,0.234,0.2354,0.2346,0.236,0.2362,0.2354,0.2363,0.2363,0.2371,0.2373,0.2376,0.2382,0.2383,0.2383,0.2383,0.2383,0.2384,0,0,0,0,0,0,0,0.2316,0.2318,0.2338,0.2338,0.2339,0.2342,0.2344,0.2349,0.2361,0.2355,0.2356,0.2358,0.2372,0.2375,0.2376,0.2383,0.2383,0.2383,0.2384,0.2384,0.2388,0.2388,0,0,0,0,0,0,0.2314,0.2317,0.2337,0.2338,0.2329,0.2342,0.2345,0.2349,0.2361,0.2364,0.2358,0.2359,0.2374,0.2375,0.2377,0.2376,0.2383,0.2384,0.2384,0.2389,0.2388,0.2388,0,0,0,0,0,0,0.2313,0.2315,0.2336,0.2328,0.2331,0.2342,0.2347,0.2349,0.2353,0.2364,0.2366,0.2359,0.2374,0.2376,0.238,0.2377,0.2384,0.2385,0.2389,0.2388,0.2388,0.2376,0,0,0,0,0,0,0.2312,0.2315,0.2316,0.2328,0.2331,0.234,0.2347,0.235,0.2354,0.2355,0.2365,0.2367,0.2375,0.2379,0.238,0.2378,0.2385,0.2389,0.2389,0.2388,0.2377,0.2376,0.2375,0,0,0,0,0,0.2311,0.2312,0.2316,0.2318,0.2333,0.234,0.2341,0.235,0.2354,0.2354,0.2361,0.2367,0.2377,0.2379,0.2381,0.2379,0.2389,0.2389,0.2388,0.2378,0.2376,0.2375,0,0,0,0,0,0,0.23,0.2314,0.2318,0.2323,0.233,0.2342,0.2343,0.2349,0.2354,0.2355,0.2365,0.2367,0.237,0.2375,0.2376,0.2378,0.2384,0.2384,0.2375,0.2374,0.2373,0.2371,0.2386,0,0,0,0,0,0.2298,0.2303,0.2315,0.2318,0.2321,0.2331,0.2335,0.2341,0.2348,0.2351,0.2358,0.2364,0.2369,0.2372,0.2377,0.2378,0.2379,0.2377,0.2376,0.2375,0.2374,0.2374,0.2372,0.2387,0.2387,0.2387,0,0,0.2294,0.2302,0.2305,0.2316,0.2322,0.2326,0.2334,0.2338,0.2341,0.2351,0.2355,0.236,0.2368,0.237,0.2371,0.2374,0.2371,0.2374,0.2373,0.2374,0.2373,0.2372,0.2371,0.2386,0.2386,0.2386,0,0,0.2289,0.2296,0.2299,0.2304,0.2313,0.232,0.232,0.2331,0.2334,0.2338,0.2346,0.2349,0.2357,0.2361,0.2365,0.2359,0.2364,0.236,0.2353,0.2353,0.2352,0.2351,0.2347,0.2346,0.236,0.236,0.236,0,0.2283,0.229,0.2299,0.2303,0.2307,0.2316,0.2318,0.2323,0.2332,0.2334,0.2338,0.2347,0.2353,0.2355,0.2353,0.2356,0.2356,0.2359,0.2351,0.235,0.2349,0.2346,0.2345,0.2359,0.2359,0.2359,0.2359,0,0.2281,0.2286,0.2287,0.2296,0.23,0.2302,0.2311,0.2313,0.2318,0.2324,0.2327,0.2334,0.234,0.2341,0.2346,0.2343,0.2345,0.2349,0.2355,0.2347,0.2344,0.2343,0.2358,0.2358,0.2359,0.2359,0,0,0.2271,0.2284,0.2284,0.2287,0.2297,0.23,0.2302,0.2308,0.2309,0.2315,0.2316,0.2322,0.2325,0.2329,0.2335,0.2334,0.2327,0.2339,0.2339,0.2335,0.2323,0.2319,0.2317,0.2331,0.2331,0.233,0.2322,0,0.2267,0.2272,0.2279,0.2281,0.2285,0.2293,0.2294,0.23,0.2304,0.2307,0.2312,0.2316,0.2321,0.2323,0.2323,0.2328,0.2325,0.2329,0.2331,0.2331,0.2328,0.2316,0.2312,0.2304,0.2321,0.2321,0.2321,0,0.2263,0.2268,0.227,0.2277,0.2279,0.2281,0.2285,0.2288,0.2294,0.2297,0.23,0.2306,0.2307,0.2312,0.2313,0.2316,0.2317,0.2319,0.2319,0.2319,0.2325,0.2315,0.2302,0.23,0.2319,0.2319,0.2319,0,0.2254,0.2261,0.2263,0.2265,0.2274,0.2275,0.2278,0.2284,0.2286,0.229,0.2291,0.2295,0.2297,0.2299,0.2305,0.2309,0.2305,0.2311,0.2307,0.2307,0.2306,0.2306,0.2291,0.2307,0.2307,0.2307,0.2307,0,0.2248,0.2249,0.2258,0.226,0.226,0.2268,0.2268,0.2272,0.2277,0.2278,0.2285,0.2286,0.2294,0.2295,0.23,0.2299,0.23,0.2302,0.2303,0.2301,0.2301,0.2302,0.2302,0.2307,0.2307,0.2307,0.2307,0,0.2238,0.2245,0.2247,0.2255,0.2257,0.2256,0.2263,0.2263,0.2268,0.2269,0.227,0.2277,0.2278,0.2284,0.2288,0.2291,0.2288,0.2291,0.2286,0.2287,0.2282,0.2282,0.2267,0.2265,0.2283,0.2283,0.2283,0,0.2234,0.2235,0.2242,0.2243,0.2246,0.2248,0.225,0.2257,0.2259,0.2264,0.2263,0.2265,0.2268,0.227,0.2274,0.2276,0.2279,0.2273,0.2279,0.2276,0.2277,0.2277,0.2276,0.2272,0.2272,0.2272,0.2272,0,0.2225,0.2228,0.2231,0.2234,0.2236,0.2239,0.2242,0.2243,0.225,0.2251,0.2253,0.2254,0.2257,0.2258,0.2261,0.2264,0.2268,0.227,0.2269,0.2266,0.2263,0.2263,0.2282,0.227,0.227,0.227,0.227,0.227,0.2218,0.2218,0.2223,0.2225,0.2228,0.223,0.223,0.2234,0.2236,0.2239,0.2242,0.2243,0.2246,0.225,0.2252,0.2252,0.2255,0.2254,0.2253,0.2253,0.2251,0.2263,0.2253,0.2253,0.2253,0.2253,0.2253,0,0.2209,0.2212,0.2213,0.2217,0.2218,0.2222,0.2226,0.2226,0.2227,0.2229,0.2231,0.2232,0.2232,0.2237,0.2238,0.2237,0.2239,0.2237,0.2237,0.2237,0.2249,0.2249,0.2235,0.2235,0.2235,0.2235,0.2235,0.2235,0.2204,0.2204,0.2207,0.2208,0.221,0.2211,0.2212,0.2214,0.2216,0.2216,0.2217,0.222,0.2222,0.2223,0.2224,0.2225,0.2225,0.2222,0.2223,0.2235,0.2236,0.2238,0.2238,0.2222,0.2222,0.2211,0.2211,0.2211]},{"header":{"parameterUnit":"m.s-1","parameterCategory":1,"la1":30.2991,"la2":30.254,"lo1":-89.0895,"lo2":-89.0444,"dy":0.0017,"dx":0.0017,"nx":28,"ny":28,"refTime":"2024-10-12T21:00:00:Z","depth":0,"parameterNumber":3,"parameterNumberName":"V-component_of_WINDS"},"data":[0,0,0,0,0,0,0,0,0,0,0,0,0,0,0,0,0,0,0,0,0,0,0,0,0,0,0,0,0,0,0,0,0,0,0,0,0,0,0,0,0,0,0,0,0,0,0,0,0,0,0,0,0,0,0,0,0,0,3.0239,3.0239,0,3.0214,3.0214,3.0213,3.0155,3.0154,3.0153,3.0152,3.0125,3.0126,3.0126,0,0,0,0,0,0,0,0,0,0,0,0,0,3.0235,3.0236,3.0239,3.0239,3.0239,3.0214,3.0214,3.0213,3.0155,3.0154,3.0152,3.0151,3.0125,3.0125,3.0126,0,0,0,0,0,0,0,0,0,0,0,0,0,3.0226,3.0236,3.0239,3.0207,3.0204,3.0214,3.0214,3.0213,3.0156,3.0154,3.0152,3.015,3.0125,3.0125,3.0126,3.0166,0,0,3.0128,3.0128,0,0,0,0,0,0,0,0,3.0227,3.0227,3.0212,3.0209,3.0205,3.0186,3.0202,3.0197,3.0156,3.0174,3.0152,3.015,3.0147,3.0145,3.0145,3.0165,3.0163,3.0128,3.0128,3.0129,3.0129,0,0,0,0,0,0,0,3.0228,3.0227,3.0229,3.0212,3.0208,3.0193,3.0189,3.0201,3.0171,3.0172,3.0168,3.0166,3.0145,3.0144,3.0144,3.0163,3.0128,3.0128,3.0129,3.0129,3.0211,3.0213,0,0,0,0,0,0,3.0233,3.0228,3.023,3.0228,3.0212,3.0194,3.0191,3.0194,3.017,3.0165,3.0167,3.0163,3.0144,3.0143,3.0142,3.0185,3.0129,3.0129,3.013,3.0209,3.0211,3.0213,0,0,0,0,0,0,3.0233,3.0234,3.0231,3.0227,3.0226,3.0196,3.02,3.0194,3.0194,3.0167,3.0161,3.0173,3.0143,3.0142,3.016,3.0183,3.0129,3.013,3.0207,3.021,3.0212,3.0272,0,0,0,0,0,0,3.0233,3.0234,3.025,3.0228,3.0226,3.0249,3.0202,3.0195,3.0195,3.0189,3.017,3.0165,3.0141,3.0159,3.016,3.0183,3.013,3.0205,3.0208,3.0211,3.0267,3.0276,3.0283,0,0,0,0,0,3.0234,3.0268,3.0251,3.0251,3.0245,3.0251,3.025,3.0222,3.0197,3.0212,3.0194,3.0166,3.0181,3.0161,3.0162,3.0186,3.0203,3.0207,3.0211,3.0264,3.0274,3.0283,0,0,0,0,0,0,3.0293,3.0264,3.0245,3.0274,3.0265,3.0241,3.0259,3.0234,3.0232,3.0227,3.0192,3.0188,3.021,3.02,3.0179,3.0221,3.0187,3.0192,3.0227,3.0237,3.0245,3.0245,3.0131,0,0,0,0,0,3.031,3.0318,3.0292,3.032,3.0316,3.0289,3.029,3.0269,3.0259,3.0255,3.0239,3.0229,3.0231,3.0234,3.0235,3.0266,3.026,3.0282,3.029,3.0297,3.0301,3.0313,3.0322,3.0227,3.0227,3.0226,0,0,3.0344,3.0329,3.0337,3.0331,3.0322,3.033,3.0286,3.0297,3.0302,3.0257,3.0272,3.026,3.0247,3.0271,3.0281,3.0263,3.0326,3.0302,3.0308,3.0308,3.0319,3.0328,3.0336,3.0229,3.0229,3.0228,0,0,3.041,3.0401,3.0421,3.0412,3.0399,3.038,3.0385,3.0365,3.0354,3.037,3.0335,3.034,3.0346,3.0337,3.0334,3.0395,3.0367,3.0396,3.0437,3.045,3.0457,3.0464,3.0483,3.049,3.04,3.04,3.04,0,3.0453,3.0464,3.0435,3.0447,3.0445,3.0404,3.0423,3.0417,3.0405,3.0403,3.0384,3.0388,3.0377,3.0397,3.0412,3.0411,3.0414,3.0397,3.0459,3.0465,3.0471,3.0488,3.0496,3.0404,3.0403,3.0403,3.0403,0,3.0518,3.0526,3.0544,3.0532,3.0532,3.0548,3.052,3.0523,3.0502,3.0485,3.0499,3.0485,3.048,3.0484,3.0464,3.0501,3.049,3.0466,3.043,3.0484,3.0499,3.0506,3.0408,3.0407,3.0406,3.0405,0,0,3.062,3.059,3.0597,3.059,3.0572,3.0577,3.0591,3.0587,3.0589,3.0582,3.0591,3.0596,3.0573,3.0569,3.0547,3.0559,3.0604,3.0532,3.0532,3.0544,3.0641,3.0657,3.0666,3.0587,3.0588,3.0589,3.0641,0,3.0679,3.07,3.0673,3.07,3.0705,3.0666,3.0678,3.0667,3.0651,3.0653,3.0636,3.0638,3.0609,3.0606,3.0616,3.0597,3.0623,3.0593,3.0593,3.0593,3.0595,3.0675,3.0693,3.0742,3.0647,3.0648,3.0649,0,3.0751,3.0746,3.0773,3.0751,3.0752,3.0763,3.0756,3.0759,3.0746,3.0733,3.0728,3.0702,3.0712,3.0679,3.0692,3.0672,3.067,3.0661,3.0662,3.0659,3.0623,3.0671,3.0757,3.0764,3.0659,3.0658,3.0658,0,3.0819,3.082,3.0835,3.0831,3.0806,3.0814,3.0804,3.0789,3.0788,3.0782,3.078,3.0775,3.0772,3.0768,3.0741,3.072,3.0756,3.0722,3.0744,3.0744,3.0751,3.0751,3.0836,3.0755,3.0755,3.0755,3.0754,0,3.0886,3.0904,3.0865,3.0874,3.0892,3.0861,3.0879,3.0865,3.0852,3.0856,3.0824,3.0829,3.0794,3.0795,3.0774,3.0785,3.0785,3.0774,3.0767,3.0775,3.0776,3.0772,3.0767,3.0756,3.0756,3.0756,3.0755,0,3.0965,3.094,3.0954,3.0929,3.0923,3.0937,3.0915,3.0922,3.0904,3.0911,3.091,3.0882,3.0881,3.0854,3.0848,3.0834,3.0853,3.0842,3.0857,3.0853,3.0875,3.0873,3.0959,3.0967,3.0884,3.0885,3.0885,0,3.1008,3.102,3.0997,3.0998,3.0989,3.0991,3.0989,3.0959,3.0958,3.0942,3.095,3.0947,3.0943,3.0943,3.0921,3.0916,3.0902,3.0933,3.0901,3.0908,3.0899,3.0898,3.0898,3.0939,3.094,3.0941,3.0941,0,3.1087,3.1074,3.1072,3.1066,3.1064,3.1058,3.1049,3.1052,3.1018,3.1018,3.1017,3.1013,3.1006,3.1002,3.0993,3.0981,3.0955,3.0952,3.0956,3.0963,3.097,3.0964,3.0873,3.095,3.0949,3.0948,3.0948,3.0947,3.1147,3.1155,3.1139,3.1138,3.1128,3.1121,3.1125,3.1107,3.1106,3.1097,3.1079,3.108,3.1065,3.1049,3.104,3.1039,3.1023,3.1031,3.1032,3.1033,3.1037,3.0973,3.1038,3.1037,3.1037,3.1037,3.1037,0,3.1222,3.1209,3.1209,3.1197,3.1196,3.1172,3.1161,3.1161,3.1162,3.115,3.1146,3.1143,3.1139,3.1116,3.1109,3.1113,3.11,3.1112,3.111,3.1107,3.1052,3.1048,3.1122,3.1122,3.1122,3.1122,3.1122,3.1122,3.126,3.1272,3.1257,3.1262,3.1249,3.125,3.1245,3.1237,3.1227,3.1226,3.1222,3.1207,3.119,3.1181,3.1176,3.1169,3.1167,3.1182,3.1171,3.112,3.1111,3.1103,3.1099,3.1182,3.1182,3.1225,3.1225,3.1226]}]]